Theta_e
308 308 308 308 307 307 307 308 309 309 310 312 310 310 309 306 302 303 301 299 297 297 296 296 297 303 309 312 312 312 311 311 311 311 310 309 309 310 310 310 310 310 310 310
308 308 307 307 308 309 309 310 309 308 308 309 310 311 307 303 302 300 298 296 295 293 293 293 293 295 299 308 310 311 310 311 311 311 310 309 309 309 310 310 309 309 308 308
309 310 309 308 309 309 309 310 309 310 310 310 310 311 307 301 300 298 295 292 291 291 290 290 290 291 292 294 304 308 309 309 310 310 310 308 308 308 308 308 308 307 306 305
309 309 310 311 312 308 312 308 309 310 313 315 310 314 311 303 299 295 292 290 289 288 288 288 287 288 288 290 294 305 308 309 309 309 310 309 308 307 307 308 307 307 305 304
311 313 313 312 311 309 312 310 310 312 312 312 312 314 311 302 300 295 291 289 287 286 285 285 285 285 286 286 289 293 303 306 307 307 308 309 308 307 307 307 306 305 304 303
310 309 311 311 311 310 311 311 310 309 309 315 311 313 310 298 295 292 289 287 285 284 284 283 283 283 283 284 285 288 292 295 301 304 305 305 307 307 306 305 305 304 303 302
309 311 310 310 312 310 310 312 315 315 315 317 309 312 300 294 291 289 287 286 284 283 283 282 282 281 282 282 283 284 286 288 291 298 302 302 302 302 304 305 305 304 303 301
313 314 312 311 312 313 310 311 315 319 316 313 309 314 299 291 288 286 285 284 283 282 281 281 280 280 280 280 281 282 283 284 285 288 292 297 300 301 301 300 300 301 302 302
312 314 310 311 308 311 311 312 311 313 312 313 311 295 292 289 287 285 284 283 282 281 280 280 279 279 278 278 279 280 281 281 282 284 287 288 291 296 299 300 299 299 299 299
307 309 308 308 308 309 310 309 314 311 319 318 313 304 298 288 285 284 283 282 281 280 279 279 278 278 277 277 277 278 278 279 280 281 282 284 287 288 290 294 296 297 297 298
301 305 304 301 306 307 307 306 306 309 310 316 315 303 287 284 283 282 281 280 280 279 278 278 277 276 276 276 276 276 277 277 278 279 280 281 283 285 287 288 289 291 293 295
296 298 299 300 299 298 298 301 301 305 303 302 307 298 283 283 282 281 280 280 279 278 277 276 276 276 275 275 275 275 275 276 276 277 278 278 280 281 282 284 286 288 289 291
295 293 289 295 304 296 295 290 294 299 300 298 305 294 280 280 280 280 278 278 277 277 276 275 275 275 275 274 274 274 274 275 275 276 276 277 277 278 279 280 282 283 286 288
296 295 289 287 294 293 294 288 287 289 285 286 288 281 275 276 277 278 276 275 274 274 274 274 274 274 274 274 273 273 273 274 274 275 275 275 275 276 277 278 279 280 281 283
291 288 292 295 292 291 284 285 285 283 276 284 277 275 269 270 273 274 273 274 273 272 273 273 273 273 273 273 272 272 273 273 273 273 274 274 274 274 275 276 277 278 279 280
290 286 291 287 290 288 282 281 282 283 279 274 271 272 269 269 269 271 270 273 272 272 272 272 272 272 272 272 271 271 271 272 272 273 272 273 273 273 273 273 273 275 276 278
291 290 283 282 289 288 286 278 282 280 276 277 280 272 270 271 273 272 269 270 270 270 270 270 270 271 271 271 270 270 271 271 271 272 271 272 272 272 272 272 272 272 273 274
291 291 290 281 293 287 277 276 275 276 273 271 273 270 267 268 268 268 265 267 268 268 269 269 269 269 270 270 270 270 270 270 270 271 270 270 270 271 271 271 272 272 272 272
290 292 289 285 282 279 274 273 273 272 272 269 267 267 265 264 262 264 263 265 263 267 267 268 269 269 269 269 269 269 269 269 270 269 269 269 269 270 270 270 271 271 271 272
286 284 290 281 286 287 273 273 272 269 273 267 266 264 262 265 266 267 261 269 267 268 268 268 268 269 268 269 268 268 268 268 269 268 267 268 268 268 268 269 270 270 271 271
283 280 278 279 278 275 269 268 268 274 274 265 264 263 263 265 265 266 267 266 267 268 268 268 268 268 268 268 268 267 267 267 267 266 267 267 267 267 267 268 269 269 270 270
274 273 274 271 271 278 267 271 274 267 261 261 258 259 263 265 265 265 266 266 267 267 267 267 267 267 267 267 266 266 266 266 265 265 265 265 265 266 267 267 268 269 269 270
278 272 273 275 275 270 267 268 259 258 264 260 258 260 260 262 264 265 266 266 266 266 266 266 266 266 266 265 266 265 265 264 265 264 264 264 265 265 266 267 268 267 268 268
270 266 271 269 271 269 262 257 257 259 260 257 259 259 260 262 264 265 266 266 265 265 266 266 266 265 264 264 264 264 264 264 264 263 264 264 264 265 266 265 266 266 266 267
267 268 266 266 265 263 261 255 258 256 259 258 263 262 263 265 265 265 265 265 265 265 264 265 264 264 264 263 263 263 263 263 263 263 263 264 264 264 264 265 265 266 267 267
266 267 264 266 259 262 262 258 259 257 260 262 264 265 265 264 264 264 264 264 264 264 264 263 263 263 263 263 262 262 262 262 262 263 263 263 264 264 264 264 264 265 267 268
Wind_Speed
2 3 10 8 7 2 3 2 3 4 2 1 7 7 10 10 17 17 18 19 21 22 23 33 40 43 16 24 28 32 34 36 34 32 29 26 25 23 22 19 17 17 17 17
4 7 7 3 5 5 2 4 7 7 3 6 5 8 11 14 12 18 19 20 21 22 24 34 40 42 40 17 17 24 30 34 36 35 32 26 26 24 22 19 18 17 17 17
6 4 5 5 3 4 4 5 6 9 4 3 2 5 5 8 15 18 20 19 20 22 23 24 35 38 40 39 26 12 19 25 31 33 30 21 21 19 20 21 20 19 18 17
5 4 4 4 6 8 4 9 8 4 2 3 1 4 1 6 14 20 20 20 20 22 22 23 32 37 39 39 37 19 8 16 26 30 31 29 25 19 22 24 22 20 19 18
5 1 2 3 6 7 8 4 7 4 4 1 2 2 4 5 10 17 18 20 19 20 21 22 31 34 35 40 38 38 20 2 11 20 28 29 25 23 18 21 21 20 19 19
6 3 3 6 3 6 2 3 5 4 3 3 8 8 1 5 8 13 15 18 20 20 21 27 31 34 38 41 43 39 36 30 13 6 13 19 23 22 19 18 19 21 20 20
5 3 2 1 1 1 4 5 3 3 0 6 2 2 5 9 11 13 14 16 18 18 19 21 29 34 38 40 41 39 38 36 33 19 8 8 13 15 18 19 19 20 21 22
1 5 2 4 2 2 5 7 5 6 4 4 2 5 4 11 12 13 14 14 17 18 18 19 28 30 33 36 38 38 38 37 36 32 27 15 6 9 12 14 14 18 20 21
4 5 5 3 4 1 1 3 2 1 0 1 4 4 4 8 12 14 15 16 17 18 17 18 27 29 31 34 34 35 35 35 36 34 30 28 24 15 7 8 11 14 16 18
3 5 4 6 4 3 1 2 2 1 4 5 4 4 3 9 12 12 15 15 15 15 17 17 24 27 30 31 32 33 34 33 33 33 33 30 26 24 20 12 7 8 11 13
3 2 6 6 7 4 6 4 5 2 2 4 8 2 5 7 9 10 11 13 13 15 15 15 21 24 26 29 32 32 34 33 35 34 33 32 30 27 23 21 19 14 8 8
2 3 3 5 4 11 6 4 4 2 5 2 3 1 5 5 7 9 9 11 11 11 12 18 21 22 25 27 29 31 31 32 31 31 32 31 29 28 28 26 23 18 17 12
3 1 3 3 2 6 6 4 3 2 2 4 1 2 5 7 8 7 8 10 11 13 14 16 20 22 23 25 26 28 29 29 31 27 29 30 30 29 27 26 24 23 19 14
3 2 6 6 2 2 1 3 2 2 2 2 4 2 4 6 8 5 6 6 7 9 10 11 16 20 22 24 24 25 27 28 29 28 26 27 28 27 25 24 24 23 21 19
4 2 1 2 3 2 3 1 2 2 3 5 3 3 5 5 5 3 2 5 8 9 11 11 12 19 20 22 25 25 24 26 26 25 23 25 26 25 24 24 24 23 20 19
4 3 3 3 6 7 5 4 5 3 2 2 2 4 4 6 4 4 4 6 8 9 10 11 16 19 21 23 24 25 27 27 24 22 21 21 23 24 24 24 24 23 21 19
1 1 3 4 3 4 2 2 2 2 2 1 2 3 4 5 10 9 3 3 7 10 10 10 15 17 19 22 25 25 27 25 26 22 21 23 24 22 23 22 22 21 20 20
3 2 2 3 2 1 1 2 2 3 2 4 3 5 4 6 8 13 4 2 10 12 12 17 19 21 22 26 26 26 24 26 25 21 23 24 25 24 24 23 22 21 20 19
2 1 0 2 2 1 3 3 1 3 3 2 3 6 5 6 6 4 1 1 4 14 21 22 25 26 27 26 25 23 26 25 22 20 24 24 25 23 23 24 23 21 21 21
6 5 1 2 3 4 3 2 0 3 3 3 2 5 4 7 4 4 5 19 20 24 25 27 28 26 26 25 25 22 25 23 17 19 26 23 24 22 23 25 22 20 21 20
3 3 3 0 2 3 4 4 1 4 3 3 2 4 2 2 5 10 20 18 20 22 24 25 24 24 25 26 23 23 21 18 16 23 19 21 22 23 23 22 21 21 22 18
2 2 0 2 3 4 2 2 3 4 3 3 3 3 4 8 11 11 15 15 19 19 21 22 21 21 23 23 24 22 20 22 25 21 21 22 24 21 18 19 20 19 17 18
1 1 2 3 2 2 2 3 2 3 3 4 2 5 5 10 11 13 12 19 21 21 22 22 21 23 20 24 21 22 26 27 24 24 23 24 24 21 20 18 15 17 18 19
4 2 1 4 2 4 3 3 2 2 3 4 7 7 5 10 11 11 16 17 20 21 22 23 21 21 24 22 24 25 27 27 26 26 24 23 22 23 20 24 18 18 18 20
3 4 3 4 3 5 3 3 2 4 7 6 13 13 9 12 12 13 15 18 19 21 22 18 22 21 23 24 25 26 26 29 26 25 24 23 22 22 23 22 21 22 20 21
1 1 1 4 5 4 7 5 6 4 6 10 10 11 14 14 14 16 16 19 20 22 19 21 22 23 24 25 26 26 27 25 24 23 23 22 24 22 21 21 24 23 20 22
Wind_Direction
24 123 221 198 205 140 114 190 262 258 247 317 227 263 282 74 49 35 31 24 15 8 354 1 2 3 297 245 233 225 216 212 208 204 203 206 209 210 213 216 217 219 218 218
43 246 229 140 182 228 268 287 280 285 261 174 290 272 35 59 58 50 35 26 15 7 5 3 4 7 7 342 245 229 222 215 209 207 203 206 207 213 216 216 219 221 221 220
168 220 60 149 152 185 223 208 232 230 326 255 315 304 132 92 64 48 38 30 22 15 7 4 4 5 5 4 353 256 225 219 211 209 202 201 205 212 213 215 219 218 221 222
231 273 205 166 218 166 262 214 225 237 76 240 46 285 164 143 61 42 28 24 17 12 9 8 5 5 5 2 7 10 250 224 218 212 206 204 200 199 214 219 221 221 223 224
249 194 154 165 219 152 225 140 187 177 178 323 217 178 242 26 26 24 23 20 16 13 12 9 6 3 5 9 9 16 27 304 234 220 217 212 212 215 221 222 222 223 225 226
247 297 254 217 186 181 122 97 58 52 105 269 193 166 5 19 6 18 19 20 17 11 10 10 8 8 9 11 14 14 18 29 33 251 237 234 227 220 222 222 223 225 227 228
325 246 291 265 183 74 88 68 320 333 34 230 275 177 67 62 48 39 24 19 17 15 12 9 9 8 5 9 11 13 14 16 21 35 18 287 263 258 245 236 233 229 229 231
2 329 47 359 274 199 179 161 172 232 212 235 112 230 104 82 61 42 36 24 19 18 14 12 9 8 6 6 9 11 12 12 16 23 26 31 357 294 275 273 267 250 244 248
5 268 337 24 316 315 139 177 215 239 315 55 190 98 131 65 34 30 26 24 19 15 13 10 7 8 7 6 7 8 10 11 12 18 30 29 29 21 346 297 283 274 266 263
33 296 358 311 343 32 78 337 305 16 279 242 239 123 103 13 5 12 15 18 15 14 13 11 8 4 4 5 5 8 10 11 9 11 23 27 31 33 32 28 352 298 280 273
41 176 306 348 28 350 345 18 6 262 8 264 282 124 35 30 16 14 15 17 10 11 8 5 4 8 4 3 4 5 7 8 9 8 16 24 25 26 30 34 31 22 346 305
347 107 288 246 89 81 63 50 49 47 318 310 273 220 22 42 45 24 19 14 10 9 5 1 3 0 5 4 1 1 3 4 7 7 14 18 23 25 25 24 21 22 25 14
335 337 354 103 209 24 61 12 346 244 202 222 275 267 47 27 21 26 19 15 11 6 359 360 359 358 357 358 358 356 357 358 7 4 11 15 17 18 19 20 20 19 18 19
176 206 179 200 171 167 205 72 346 137 129 244 236 266 351 1 352 358 14 3 356 354 354 355 354 352 350 350 351 352 352 357 359 8 5 11 14 13 15 13 14 16 17 18
78 181 335 191 237 156 111 14 1 139 204 163 252 200 263 300 328 339 344 354 355 350 348 347 345 341 343 345 344 344 346 353 355 358 0 2 6 9 11 12 9 6 9 11
10 297 29 300 42 91 96 30 91 75 79 57 103 289 219 277 300 325 326 357 345 340 337 333 335 334 336 339 336 338 341 348 352 350 358 356 357 0 3 4 2 360 0 1
346 97 55 282 104 134 339 347 27 123 67 343 238 250 324 324 325 316 298 346 337 328 327 326 326 325 325 327 333 335 340 345 346 350 353 353 352 351 353 355 354 356 352 351
171 144 133 238 24 305 142 41 68 113 85 24 18 323 286 274 284 293 249 150 340 331 325 322 319 320 322 330 336 336 338 339 339 340 344 345 347 341 339 343 347 346 345 344
133 130 59 162 185 323 349 312 53 104 273 252 264 296 285 295 311 326 135 243 271 305 310 310 318 321 326 329 335 334 336 337 336 340 338 333 334 333 328 330 334 336 336 333
62 35 145 76 160 239 231 275 334 115 286 257 216 292 307 340 18 262 288 324 311 309 315 316 322 321 323 330 333 331 330 327 328 331 326 321 326 323 321 322 322 323 322 319
4 15 98 27 223 296 249 267 100 78 242 293 231 260 278 282 222 280 305 301 299 304 310 318 317 316 320 328 329 325 318 317 319 320 316 316 318 316 317 313 316 316 316 313
102 70 325 79 51 301 228 7 156 212 300 235 262 248 257 278 293 294 299 302 310 312 317 320 315 313 319 324 325 317 316 319 319 319 314 312 315 315 308 307 306 307 308 307
359 170 242 191 226 246 215 195 234 160 183 278 229 262 259 289 296 304 307 313 318 319 319 320 319 318 321 322 323 320 317 319 318 316 312 311 312 309 307 304 303 305 301 305
4 356 205 25 343 297 309 307 224 184 248 262 253 265 270 279 291 297 310 311 314 316 318 321 322 319 316 321 319 315 317 316 316 313 311 310 308 308 307 307 302 297 293 296
223 351 335 271 310 335 348 242 249 293 298 281 300 279 271 293 307 304 308 309 311 311 313 317 316 315 313 314 312 313 314 316 311 308 307 307 305 304 302 300 297 298 298 294
357 231 90 257 216 196 262 289 315 293 294 296 299 305 310 304 303 307 305 307 308 304 318 316 312 311 310 310 308 308 310 309 304 303 305 303 304 299 296 294 295 298 291 290